| time (UTC) | temp C | wind direction | speed KPH | gust KPH | rain 1hr cm | rain 24hr cm | rain mn cm | humidity % | barometer mb |
| 20260507121056 | 13 | 2 | 6.4 | 6.4 | 0.00 | 0.13 | 0.13 | 58 | 1013.0 |
| 20260507120552 | 13 | 107 | 1.6 | 3.2 | 0.00 | 0.13 | 0.13 | 59 | 1013.0 |
| 20260507120049 | 13 | 346 | 3.2 | 4.8 | 0.00 | 0.13 | 0.13 | 60 | 1013.2 |
| 20260507115545 | 13 | 22 | 6.4 | 6.4 | 0.00 | 0.13 | 0.13 | 60 | 1012.9 |
| 20260507115041 | 13 | 316 | 3.2 | 3.2 | 0.00 | 0.13 | 0.13 | 60 | 1012.7 |
| 20260507114537 | 13 | 280 | 4.8 | 6.4 | 0.00 | 0.13 | 0.13 | 60 | 1012.9 |
| 20260507114035 | 13 | 36 | 6.4 | 9.7 | 0.00 | 0.13 | 0.13 | 61 | 1012.5 |
| 20260507113532 | 13 | 56 | 6.4 | 9.7 | 0.00 | 0.13 | 0.13 | 63 | 1012.9 |
| 20260507113029 | 13 | 311 | 4.8 | 6.4 | 0.00 | 0.13 | 0.13 | 65 | 1012.6 |
| 20260507112527 | 13 | 352 | 4.8 | 11.3 | 0.00 | 0.13 | 0.13 | 69 | 1012.7 |
| 20260507112023 | 12 | 268 | 4.8 | 6.4 | 0.00 | 0.13 | 0.13 | 72 | 1012.6 |
| 20260507111521 | 12 | 319 | 3.2 | 3.2 | 0.00 | 0.13 | 0.13 | 73 | 1012.6 |
| 20260507111017 | 13 | 358 | 3.2 | 3.2 | 0.00 | 0.13 | 0.13 | 73 | 1012.6 |
| 20260507110513 | 13 | 346 | 1.6 | 1.6 | 0.00 | 0.13 | 0.13 | 74 | 1012.3 |
| 20260507110010 | 13 | 254 | 0.0 | 1.6 | 0.00 | 0.13 | 0.13 | 74 | 1012.6 |
| 20260507105507 | 13 | 48 | 4.8 | 4.8 | 0.00 | 0.13 | 0.13 | 74 | 1012.5 |
| 20260507105003 | 13 | 243 | 1.6 | 1.6 | 0.00 | 0.13 | 0.13 | 73 | 1012.4 |
| 20260507104500 | 13 | 272 | 1.6 | 1.6 | 0.00 | 0.13 | 0.13 | 74 | 1012.5 |
| 20260507103956 | 12 | 241 | 1.6 | 3.2 | 0.00 | 0.13 | 0.13 | 76 | 1012.2 |
| 20260507103453 | 13 | 265 | 0.0 | 1.6 | 0.00 | 0.13 | 0.13 | 78 | 1012.4 |
| 20260507102949 | 13 | 251 | 0.0 | 1.6 | 0.00 | 0.13 | 0.13 | 79 | 1012.3 |
| 20260507102446 | 12 | 256 | 1.6 | 1.6 | 0.00 | 0.13 | 0.13 | 79 | 1012.2 |
| 20260507101942 | 12 | 345 | 3.2 | 4.8 | 0.00 | 0.13 | 0.13 | 79 | 1012.1 |
| 20260507101437 | 12 | 296 | 1.6 | 3.2 | 0.00 | 0.13 | 0.13 | 80 | 1012.1 |
| 20260507100934 | 12 | 307 | 1.6 | 1.6 | 0.00 | 0.13 | 0.13 | 81 | 1012.1 |
| 20260507100432 | 12 | 290 | 0.0 | 1.6 | 0.00 | 0.13 | 0.13 | 82 | 1012.2 |
| 20260507095930 | 12 | 17 | 3.2 | 4.8 | 0.00 | 0.13 | 0.13 | 82 | 1012.0 |
| 20260507095427 | 12 | 3 | 1.6 | 1.6 | 0.00 | 0.13 | 0.13 | 82 | 1012.0 |
| 20260507094924 | 12 | 343 | 1.6 | 3.2 | 0.00 | 0.13 | 0.13 | 82 | 1011.9 |
| 20260507094420 | 12 | 328 | 3.2 | 4.8 | 0.00 | 0.13 | 0.13 | 82 | 1012.0 |
| 20260507093917 | 12 | 346 | 6.4 | 6.4 | 0.00 | 0.13 | 0.13 | 82 | 1011.9 |
| 20260507093415 | 12 | 53 | 4.8 | 4.8 | 0.00 | 0.13 | 0.13 | 82 | 1012.0 |
| 20260507092913 | 12 | 6 | 3.2 | 3.2 | 0.00 | 0.13 | 0.13 | 83 | 1012.1 |
| 20260507092409 | 12 | 331 | 3.2 | 4.8 | 0.00 | 0.13 | 0.13 | 83 | 1011.6 |
| 20260507091906 | 12 | 358 | 6.4 | 6.4 | 0.00 | 0.13 | 0.13 | 83 | 1011.7 |
| 20260507091402 | 13 | 328 | 4.8 | 6.4 | 0.00 | 0.13 | 0.13 | 83 | 1011.8 |
| 20260507090858 | 13 | 38 | 8.0 | 9.7 | 0.00 | 0.13 | 0.13 | 83 | 1012.1 |
| 20260507090354 | 13 | 257 | 1.6 | 1.6 | 0.00 | 0.13 | 0.13 | 84 | 1012.0 |
| 20260507085852 | 13 | 255 | 1.6 | 1.6 | 0.00 | 0.13 | 0.13 | 83 | 1012.0 |
| 20260507085348 | 13 | 295 | 1.6 | 3.2 | 0.00 | 0.13 | 0.13 | 84 | 1011.9 |
| 20260507084846 | 13 | 334 | 3.2 | 3.2 | 0.00 | 0.13 | 0.13 | 83 | 1011.6 |
| 20260507084342 | 13 | 321 | 1.6 | 1.6 | 0.00 | 0.13 | 0.13 | 83 | 1011.6 |
| 20260507083840 | 13 | 28 | 3.2 | 3.2 | 0.00 | 0.13 | 0.13 | 83 | 1011.8 |
| 20260507083336 | 13 | 305 | 0.0 | 0.0 | 0.00 | 0.13 | 0.13 | 83 | 1011.9 |
| 20260507082832 | 13 | 339 | 3.2 | 3.2 | 0.00 | 0.13 | 0.13 | 83 | 1011.7 |
| 20260507082328 | 13 | 287 | 1.6 | 3.2 | 0.00 | 0.13 | 0.13 | 83 | 1011.7 |
| 20260507081825 | 13 | 272 | 1.6 | 1.6 | 0.00 | 0.13 | 0.13 | 83 | 1011.5 |
| 20260507081321 | 13 | 257 | 0.0 | 1.6 | 0.00 | 0.13 | 0.13 | 83 | 1011.4 |
| 20260507080818 | 13 | 278 | 1.6 | 3.2 | 0.00 | 0.13 | 0.13 | 83 | 1011.2 |
| 20260507080314 | 13 | 256 | 1.6 | 1.6 | 0.00 | 0.13 | 0.13 | 83 | 1011.2 |
| 20260507075809 | 13 | 270 | 1.6 | 1.6 | 0.00 | 0.13 | 0.13 | 83 | 1011.0 |
| 20260507075307 | 13 | 292 | 3.2 | 3.2 | 0.00 | 0.13 | 0.13 | 84 | 1011.1 |
| 20260507074802 | 13 | 288 | 3.2 | 3.2 | 0.00 | 0.13 | 0.13 | 85 | 1011.1 |
| 20260507074301 | 13 | 265 | 0.0 | 1.6 | 0.00 | 0.13 | 0.13 | 85 | 1011.1 |
| 20260507073757 | 13 | 300 | 0.0 | 1.6 | 0.00 | 0.13 | 0.13 | 86 | 1010.8 |
| 20260507073253 | 13 | 318 | 1.6 | 3.2 | 0.00 | 0.13 | 0.13 | 86 | 1010.7 |
| 20260507072751 | 13 | 19 | 3.2 | 3.2 | 0.00 | 0.13 | 0.13 | 87 | 1010.8 |
| 20260507072248 | 13 | 251 | 0.0 | 1.6 | 0.00 | 0.13 | 0.13 | 87 | 1010.8 |
| 20260507071746 | 13 | 269 | 0.0 | 0.0 | 0.00 | 0.13 | 0.13 | 88 | 1011.0 |
| 20260507071242 | 13 | 239 | 0.0 | 1.6 | 0.00 | 0.13 | 0.13 | 88 | 1010.8 |
| 20260507070739 | 13 | 245 | 0.0 | 0.0 | 0.00 | 0.13 | 0.13 | 88 | 1011.0 |
| 20260507070236 | 13 | 252 | 0.0 | 1.6 | 0.00 | 0.13 | 0.13 | 89 | 1010.9 |
| 20260507065732 | 13 | 359 | 3.2 | 6.4 | 0.00 | 0.13 | 0.13 | 89 | 1010.6 |
| 20260507065229 | 13 | 314 | 3.2 | 4.8 | 0.00 | 0.13 | 0.13 | 89 | 1010.6 |
| 20260507064727 | 13 | 288 | 1.6 | 3.2 | 0.00 | 0.13 | 0.13 | 89 | 1010.9 |
| 20260507064226 | 13 | 252 | 0.0 | 0.0 | 0.00 | 0.13 | 0.13 | 89 | 1010.9 |
| 20260507063722 | 13 | 256 | 0.0 | 0.0 | 0.00 | 0.13 | 0.13 | 89 | 1011.0 |
| 20260507063219 | 13 | 300 | 1.6 | 1.6 | 0.00 | 0.13 | 0.13 | 89 | 1010.9 |
| 20260507062716 | 13 | 271 | 0.0 | 1.6 | 0.00 | 0.13 | 0.13 | 89 | 1011.1 |
| 20260507062214 | 13 | 291 | 1.6 | 1.6 | 0.00 | 0.13 | 0.13 | 89 | 1010.7 |
| 20260507061711 | 13 | 38 | 1.6 | 1.6 | 0.00 | 0.13 | 0.13 | 89 | 1010.5 |
| 20260507061209 | 13 | 313 | 1.6 | 1.6 | 0.00 | 0.13 | 0.13 | 89 | 1010.6 |
| 20260507060707 | 14 | 344 | 4.8 | 6.4 | 0.13 | 0.13 | 0.13 | 89 | 1010.5 |
| 20260507060203 | 14 | 265 | 1.6 | 1.6 | 0.13 | 0.13 | 0.13 | 89 | 1010.9 |
| 20260507055659 | 14 | 293 | 1.6 | 1.6 | 0.00 | 0.10 | 0.10 | 89 | 1010.8 |
| 20260507055155 | 14 | 321 | 3.2 | 3.2 | 0.00 | 0.10 | 0.10 | 88 | 1010.7 |
| 20260507054651 | 14 | 266 | 1.6 | 3.2 | 0.00 | 0.10 | 0.10 | 88 | 1010.9 |
| 20260507054148 | 14 | 3 | 6.4 | 11.3 | 0.00 | 0.10 | 0.10 | 87 | 1010.8 |
| 20260507053646 | 14 | 248 | 1.6 | 3.2 | 0.00 | 0.10 | 0.10 | 87 | 1011.0 |
| 20260507053144 | 14 | 251 | 1.6 | 3.2 | 0.00 | 0.10 | 0.10 | 87 | 1011.0 |
| 20260507052642 | 15 | 250 | 0.0 | 1.6 | 0.00 | 0.10 | 0.10 | 87 | 1010.8 |
| 20260507052138 | 15 | 264 | 1.6 | 3.2 | 0.00 | 0.10 | 0.10 | 86 | 1010.5 |
| 20260507051636 | 15 | 300 | 0.0 | 1.6 | 0.00 | 0.10 | 0.10 | 86 | 1010.3 |
| 20260507051132 | 15 | 255 | 0.0 | 1.6 | 0.00 | 0.10 | 0.10 | 86 | 1010.7 |
| 20260507050629 | 15 | 270 | 0.0 | 1.6 | 0.18 | 0.10 | 0.10 | 86 | 1011.0 |
| 20260507050126 | 15 | 257 | 0.0 | 1.6 | 0.18 | 0.10 | 0.10 | 85 | 1011.3 |
| 20260507045623 | 15 | 252 | 1.6 | 1.6 | 0.00 | 0.08 | 0.08 | 84 | 1011.3 |
| 20260507045120 | 15 | 255 | 1.6 | 1.6 | 0.00 | 0.08 | 0.08 | 82 | 1011.1 |
| 20260507044616 | 15 | 263 | 1.6 | 1.6 | 0.00 | 0.08 | 0.08 | 82 | 1011.0 |
| 20260507044113 | 15 | 262 | 1.6 | 3.2 | 0.30 | 0.08 | 0.08 | 81 | 1010.8 |
| 20260507043609 | 16 | 257 | 0.0 | 1.6 | 0.43 | 0.08 | 0.08 | 79 | 1010.7 |
| 20260507043107 | 16 | 293 | 0.0 | 1.6 | 0.30 | 0.05 | 0.05 | 77 | 1011.1 |
| 20260507042602 | 16 | 218 | 0.0 | 1.6 | 0.00 | 0.00 | 0.00 | 74 | 1011.0 |
| 20260507042058 | 17 | 281 | 0.0 | 0.0 | 0.00 | 0.00 | 0.00 | 72 | 1011.1 |
| 20260507041555 | 17 | 258 | 1.6 | 1.6 | 0.00 | 0.00 | 0.00 | 72 | 1011.0 |
| 20260507041052 | 17 | 252 | 1.6 | 1.6 | 0.00 | 0.00 | 0.00 | 73 | 1010.8 |
| 20260507040549 | 17 | 259 | 3.2 | 6.4 | 0.00 | 0.00 | 0.00 | 74 | 1010.7 |
| 20260507040045 | 17 | 199 | 1.6 | 3.2 | 0.00 | 0.64 | 0.64 | 75 | 1010.5 |
| 20260507035541 | 17 | 288 | 0.0 | 0.0 | 0.00 | 0.64 | 0.64 | 76 | 1010.5 |
| 20260507035037 | 17 | 332 | 6.4 | 9.7 | 0.00 | 0.64 | 0.64 | 76 | 1010.4 |
| 20260507034534 | 17 | 237 | 3.2 | 3.2 | 0.00 | 0.64 | 0.64 | 78 | 1010.4 |
| 20260507034032 | 17 | 223 | 0.0 | 1.6 | 0.00 | 0.64 | 0.64 | 77 | 1010.5 |
| 20260507033530 | 17 | 267 | 1.6 | 1.6 | 0.00 | 0.64 | 0.64 | 76 | 1010.4 |
| 20260507033027 | 18 | 246 | 6.4 | 9.7 | 0.00 | 0.64 | 0.64 | 73 | 1010.5 |
| 20260507032524 | 18 | 260 | 0.0 | 1.6 | 0.00 | 0.64 | 0.64 | 70 | 1010.4 |
| 20260507032020 | 18 | 256 | 3.2 | 4.8 | 0.00 | 0.64 | 0.64 | 70 | 1010.5 |
| 20260507031516 | 18 | 253 | 0.0 | 1.6 | 0.00 | 0.64 | 0.64 | 70 | 1010.3 |
| 20260507031014 | 18 | 338 | 6.4 | 6.4 | 0.00 | 0.64 | 0.64 | 70 | 1009.9 |
| 20260507030510 | 18 | 276 | 3.2 | 6.4 | 0.00 | 0.64 | 0.64 | 69 | 1009.7 |
| 20260507030008 | 18 | 222 | 3.2 | 3.2 | 0.00 | 0.64 | 0.64 | 69 | 1009.7 |
| 20260507025505 | 18 | 252 | 0.0 | 0.0 | 0.00 | 0.64 | 0.64 | 70 | 1010.1 |
| 20260507025003 | 18 | 38 | 1.6 | 3.2 | 0.00 | 0.64 | 0.64 | 70 | 1010.0 |
| 20260507024500 | 18 | 341 | 1.6 | 4.8 | 0.00 | 0.64 | 0.64 | 72 | 1010.3 |
| 20260507023956 | 18 | 11 | 4.8 | 6.4 | 0.00 | 0.64 | 0.64 | 72 | 1010.0 |
| 20260507023452 | 18 | 355 | 6.4 | 9.7 | 0.00 | 0.64 | 0.64 | 72 | 1009.7 |
| 20260507022950 | 19 | 43 | 6.4 | 9.7 | 0.00 | 0.64 | 0.64 | 73 | 1009.7 |
| 20260507022447 | 19 | 326 | 3.2 | 3.2 | 0.00 | 0.64 | 0.64 | 73 | 1009.7 |
| 20260507021942 | 19 | 240 | 3.2 | 4.8 | 0.00 | 0.64 | 0.64 | 73 | 1009.8 |
| 20260507021437 | 20 | 246 | 4.8 | 4.8 | 0.00 | 0.64 | 0.64 | 74 | 1009.3 |
| 20260507020936 | 20 | 87 | 1.6 | 1.6 | 0.00 | 0.64 | 0.64 | 74 | 1009.4 |
| 20260507020432 | 20 | 257 | 0.0 | 1.6 | 0.00 | 0.64 | 0.64 | 74 | 1009.4 |
| 20260507015929 | 20 | 21 | 3.2 | 4.8 | 0.00 | 0.64 | 0.64 | 75 | 1009.3 |
| 20260507015427 | 20 | 233 | 1.6 | 1.6 | 0.00 | 0.64 | 0.64 | 74 | 1009.4 |
| 20260507014924 | 20 | 243 | 3.2 | 4.8 | 0.00 | 0.64 | 0.64 | 77 | 1009.4 |
| 20260507014420 | 20 | 252 | 1.6 | 3.2 | 0.00 | 0.64 | 0.64 | 77 | 1009.4 |
| 20260507013917 | 20 | 262 | 1.6 | 3.2 | 0.00 | 0.64 | 0.64 | 76 | 1009.4 |
| 20260507013414 | 20 | 251 | 0.0 | 1.6 | 0.00 | 0.64 | 0.64 | 76 | 1009.5 |
| 20260507012912 | 20 | 253 | 0.0 | 0.0 | 0.00 | 0.64 | 0.64 | 76 | 1009.6 |
| 20260507012408 | 20 | 274 | 3.2 | 4.8 | 0.00 | 0.64 | 0.64 | 75 | 1009.5 |
| 20260507011904 | 20 | 258 | 1.6 | 1.6 | 0.00 | 0.64 | 0.64 | 75 | 1009.5 |
| 20260507011401 | 21 | 265 | 1.6 | 3.2 | 0.00 | 0.64 | 0.64 | 75 | 1009.7 |
| 20260507010901 | 21 | 245 | 0.0 | 0.0 | 0.00 | 0.64 | 0.64 | 75 | 1009.3 |
| 20260507010357 | 21 | 267 | 0.0 | 0.0 | 0.00 | 0.64 | 0.64 | 75 | 1009.6 |
| 20260507005855 | 21 | 279 | 3.2 | 4.8 | 0.00 | 0.64 | 0.64 | 75 | 1009.7 |
| 20260507005351 | 20 | 261 | 1.6 | 1.6 | 0.00 | 0.64 | 0.64 | 75 | 1009.5 |
| 20260507004848 | 20 | 269 | 3.2 | 3.2 | 0.00 | 0.64 | 0.64 | 75 | 1009.4 |
| 20260507004345 | 20 | 250 | 1.6 | 1.6 | 0.00 | 0.64 | 0.64 | 75 | 1009.2 |
| 20260507003842 | 20 | 243 | 3.2 | 3.2 | 0.00 | 0.64 | 0.64 | 75 | 1009.4 |
| 20260507003337 | 20 | 254 | 0.0 | 0.0 | 0.00 | 0.64 | 0.64 | 75 | 1009.2 |
| 20260507002832 | 20 | 257 | 0.0 | 0.0 | 0.00 | 0.64 | 0.64 | 75 | 1009.3 |
| 20260507002329 | 20 | 246 | 0.0 | 0.0 | 0.00 | 0.64 | 0.64 | 75 | 1009.0 |
| 20260507001827 | 20 | 251 | 1.6 | 1.6 | 0.00 | 0.64 | 0.64 | 75 | 1009.0 |
| 20260507001323 | 20 | 262 | 0.0 | 0.0 | 0.00 | 0.64 | 0.64 | 75 | 1009.0 |
| 20260507000820 | 20 | 253 | 0.0 | 1.6 | 0.00 | 0.64 | 0.64 | 75 | 1009.3 |
| 20260507000315 | 21 | 262 | 0.0 | 1.6 | 0.00 | 0.64 | 0.64 | 75 | 1009.0 |
| 20260506235812 | 21 | 250 | 4.8 | 4.8 | 0.00 | 0.64 | 0.64 | 74 | 1009.3 |
| 20260506235308 | 21 | 252 | 0.0 | 1.6 | 0.00 | 0.64 | 0.64 | 74 | 1008.8 |
| 20260506234805 | 21 | 263 | 1.6 | 1.6 | 0.00 | 0.64 | 0.64 | 74 | 1009.1 |
| 20260506234303 | 21 | 257 | 3.2 | 3.2 | 0.00 | 0.64 | 0.64 | 74 | 1008.8 |
| 20260506233800 | 21 | 281 | 8.0 | 9.7 | 0.00 | 0.64 | 0.64 | 74 | 1008.8 |
| 20260506233256 | 21 | 267 | 3.2 | 4.8 | 0.00 | 0.64 | 0.64 | 73 | 1008.3 |
| 20260506232748 | 21 | 258 | 3.2 | 4.8 | 0.00 | 0.64 | 0.64 | 73 | 1008.7 |
| 20260506232248 | 21 | 253 | 3.2 | 4.8 | 0.00 | 0.64 | 0.64 | 73 | 1008.7 |
| 20260506231745 | 21 | 260 | 6.4 | 9.7 | 0.00 | 0.64 | 0.64 | 73 | 1008.5 |
| 20260506231243 | 21 | 242 | 4.8 | 4.8 | 0.00 | 0.64 | 0.64 | 73 | 1008.5 |
| 20260506230740 | 21 | 246 | 1.6 | 1.6 | 0.00 | 0.64 | 0.64 | 73 | 1008.6 |
| 20260506230237 | 21 | 272 | 6.4 | 9.7 | 0.00 | 0.64 | 0.64 | 72 | 1008.5 |
| 20260506225733 | 21 | 274 | 3.2 | 3.2 | 0.00 | 0.64 | 0.64 | 72 | 1008.5 |
| 20260506225231 | 21 | 239 | 3.2 | 3.2 | 0.00 | 0.64 | 0.64 | 73 | 1008.3 |
| 20260506224727 | 21 | 256 | 3.2 | 3.2 | 0.00 | 0.64 | 0.64 | 72 | 1008.6 |
| 20260506224224 | 21 | 247 | 9.7 | 11.3 | 0.00 | 0.64 | 0.64 | 72 | 1008.6 |
| 20260506223720 | 21 | 267 | 6.4 | 11.3 | 0.00 | 0.64 | 0.64 | 72 | 1008.4 |
| 20260506223216 | 21 | 221 | 4.8 | 6.4 | 0.00 | 0.64 | 0.64 | 71 | 1008.5 |
| 20260506222713 | 21 | 255 | 0.0 | 1.6 | 0.00 | 0.64 | 0.64 | 71 | 1008.2 |
| 20260506222208 | 21 | 259 | 3.2 | 4.8 | 0.00 | 0.64 | 0.64 | 70 | 1008.5 |
| 20260506221707 | 21 | 245 | 3.2 | 3.2 | 0.00 | 0.64 | 0.64 | 71 | 1008.2 |
| 20260506221204 | 21 | 196 | 1.6 | 3.2 | 0.00 | 0.64 | 0.64 | 70 | 1008.5 |
| 20260506220701 | 21 | 251 | 1.6 | 3.2 | 0.00 | 0.64 | 0.64 | 70 | 1008.4 |
| 20260506220156 | 22 | 251 | 4.8 | 4.8 | 0.00 | 0.64 | 0.64 | 70 | 1008.2 |
| 20260506215653 | 21 | 233 | 3.2 | 3.2 | 0.00 | 0.64 | 0.64 | 71 | 1008.3 |
| 20260506215148 | 21 | 273 | 6.4 | 11.3 | 0.00 | 0.64 | 0.64 | 71 | 1008.1 |
| 20260506214645 | 21 | 253 | 1.6 | 1.6 | 0.00 | 0.64 | 0.64 | 71 | 1008.3 |
| 20260506214143 | 21 | 200 | 0.0 | 1.6 | 0.00 | 0.64 | 0.64 | 71 | 1008.5 |
| 20260506213641 | 22 | 155 | 4.8 | 6.4 | 0.00 | 0.64 | 0.64 | 70 | 1008.4 |
| 20260506213138 | 22 | 283 | 6.4 | 9.7 | 0.00 | 0.64 | 0.64 | 70 | 1008.3 |
| 20260506212636 | 22 | 181 | 1.6 | 3.2 | 0.00 | 0.64 | 0.64 | 70 | 1008.3 |
| 20260506212130 | 22 | 210 | 3.2 | 3.2 | 0.00 | 0.64 | 0.64 | 70 | 1008.2 |
| 20260506211626 | 21 | 257 | 3.2 | 4.8 | 0.00 | 0.64 | 0.64 | 69 | 1008.2 |
| 20260506211123 | 22 | 268 | 6.4 | 12.9 | 0.00 | 0.64 | 0.64 | 68 | 1008.4 |
| 20260506210620 | 21 | 237 | 6.4 | 6.4 | 0.00 | 0.64 | 0.64 | 70 | 1007.9 |
| 20260506210116 | 21 | 290 | 6.4 | 12.9 | 0.00 | 0.64 | 0.64 | 70 | 1007.7 |
| 20260506205613 | 21 | 289 | 8.0 | 12.9 | 0.00 | 0.64 | 0.64 | 70 | 1007.9 |
| 20260506205108 | 21 | 261 | 9.7 | 12.9 | 0.00 | 0.64 | 0.64 | 70 | 1008.2 |
| 20260506204606 | 21 | 230 | 16.1 | 22.5 | 0.00 | 0.64 | 0.64 | 69 | 1008.0 |
| 20260506204103 | 22 | 283 | 11.3 | 12.9 | 0.00 | 0.64 | 0.64 | 69 | 1007.9 |
| 20260506203602 | 21 | 256 | 1.6 | 1.6 | 0.00 | 0.64 | 0.64 | 70 | 1007.8 |
| 20260506203058 | 21 | 242 | 8.0 | 9.7 | 0.00 | 0.64 | 0.64 | 69 | 1007.8 |
| 20260506202555 | 21 | 156 | 4.8 | 6.4 | 0.00 | 0.64 | 0.64 | 70 | 1008.0 |
| 20260506202052 | 21 | 245 | 1.6 | 3.2 | 0.00 | 0.64 | 0.64 | 71 | 1008.0 |
| 20260506201549 | 21 | 274 | 3.2 | 3.2 | 0.00 | 0.64 | 0.64 | 72 | 1007.9 |
| 20260506201046 | 21 | 204 | 11.3 | 14.5 | 0.00 | 0.64 | 0.64 | 71 | 1007.9 |
| 20260506200542 | 21 | 314 | 6.4 | 12.9 | 0.00 | 0.64 | 0.64 | 71 | 1008.3 |
| 20260506200039 | 21 | 230 | 9.7 | 14.5 | 0.00 | 0.64 | 0.64 | 73 | 1008.3 |
| 20260506195535 | 21 | 227 | 3.2 | 6.4 | 0.00 | 0.64 | 0.64 | 72 | 1008.2 |
| 20260506195032 | 20 | 262 | 6.4 | 6.4 | 0.00 | 0.64 | 0.64 | 73 | 1008.0 |
| 20260506194530 | 20 | 237 | 9.7 | 11.3 | 0.00 | 0.64 | 0.64 | 73 | 1008.2 |
| 20260506194026 | 20 | 177 | 9.7 | 16.1 | 0.00 | 0.64 | 0.64 | 73 | 1008.2 |
| 20260506193523 | 21 | 271 | 12.9 | 17.7 | 0.00 | 0.64 | 0.64 | 71 | 1008.1 |
| 20260506193020 | 21 | 240 | 4.8 | 6.4 | 0.00 | 0.64 | 0.64 | 72 | 1008.1 |
| 20260506192517 | 21 | 314 | 8.0 | 11.3 | 0.00 | 0.64 | 0.64 | 72 | 1008.5 |
| 20260506192013 | 21 | 275 | 4.8 | 4.8 | 0.00 | 0.64 | 0.64 | 72 | 1008.1 |
| 20260506191510 | 21 | 162 | 4.8 | 6.4 | 0.00 | 0.64 | 0.64 | 71 | 1008.2 |
| 20260506191006 | 21 | 245 | 8.0 | 17.7 | 0.00 | 0.64 | 0.64 | 71 | 1008.3 |
| 20260506190503 | 21 | 247 | 6.4 | 12.9 | 0.00 | 0.64 | 0.64 | 71 | 1008.4 |
| 20260506190000 | 21 | 233 | 6.4 | 12.9 | 0.00 | 0.64 | 0.64 | 71 | 1008.4 |
| 20260506185457 | 20 | 246 | 4.8 | 6.4 | 0.00 | 0.64 | 0.64 | 72 | 1008.4 |
| 20260506184954 | 20 | 237 | 3.2 | 4.8 | 0.00 | 0.64 | 0.64 | 73 | 1008.5 |
| 20260506184451 | 20 | 273 | 8.0 | 11.3 | 0.00 | 0.64 | 0.64 | 73 | 1008.6 |
| 20260506183948 | 20 | 250 | 6.4 | 9.7 | 0.00 | 0.64 | 0.64 | 73 | 1008.2 |
| 20260506183444 | 20 | 232 | 6.4 | 14.5 | 0.00 | 0.64 | 0.64 | 72 | 1008.6 |
| 20260506182941 | 20 | 257 | 1.6 | 3.2 | 0.00 | 0.64 | 0.64 | 73 | 1008.6 |
| 20260506182438 | 20 | 110 | 6.4 | 9.7 | 0.00 | 0.64 | 0.64 | 73 | 1008.9 |
| 20260506181935 | 20 | 232 | 8.0 | 11.3 | 0.00 | 0.64 | 0.64 | 74 | 1008.8 |
| 20260506181433 | 20 | 253 | 9.7 | 14.5 | 0.00 | 0.64 | 0.64 | 74 | 1008.7 |
| 20260506180930 | 20 | 236 | 12.9 | 16.1 | 0.00 | 0.64 | 0.64 | 73 | 1008.8 |
| 20260506180426 | 20 | 254 | 3.2 | 4.8 | 0.00 | 0.64 | 0.64 | 75 | 1009.0 |
| 20260506175923 | 20 | 237 | 12.9 | 14.5 | 0.00 | 0.64 | 0.64 | 75 | 1008.9 |
| 20260506175420 | 20 | 288 | 9.7 | 14.5 | 0.00 | 0.64 | 0.64 | 75 | 1009.2 |
| 20260506174917 | 19 | 259 | 11.3 | 14.5 | 0.00 | 0.64 | 0.64 | 76 | 1008.9 |
| 20260506174414 | 19 | 231 | 6.4 | 11.3 | 0.00 | 0.64 | 0.64 | 77 | 1009.1 |
| 20260506173911 | 19 | 254 | 9.7 | 16.1 | 0.00 | 0.64 | 0.64 | 77 | 1009.1 |
| 20260506173408 | 18 | 174 | 9.7 | 12.9 | 0.00 | 0.64 | 0.64 | 78 | 1009.2 |
| 20260506172905 | 18 | 239 | 11.3 | 14.5 | 0.00 | 0.64 | 0.64 | 79 | 1009.2 |
| 20260506172402 | 18 | 274 | 8.0 | 12.9 | 0.00 | 0.64 | 0.64 | 79 | 1009.2 |
| 20260506171859 | 18 | 219 | 4.8 | 6.4 | 0.00 | 0.64 | 0.64 | 80 | 1009.1 |
| 20260506171356 | 18 | 247 | 4.8 | 6.4 | 0.00 | 0.64 | 0.64 | 80 | 1009.2 |
| 20260506170854 | 18 | 282 | 9.7 | 14.5 | 0.00 | 0.64 | 0.64 | 80 | 1009.4 |
| 20260506170350 | 18 | 277 | 1.6 | 3.2 | 0.00 | 0.64 | 0.64 | 81 | 1009.5 |
| 20260506165849 | 18 | 158 | 4.8 | 12.9 | 0.00 | 0.64 | 0.64 | 81 | 1009.1 |
| 20260506165347 | 18 | 90 | 4.8 | 6.4 | 0.00 | 0.64 | 0.64 | 81 | 1009.4 |
| 20260506164843 | 18 | 211 | 4.8 | 6.4 | 0.00 | 0.64 | 0.64 | 82 | 1009.1 |
| 20260506164339 | 18 | 252 | 6.4 | 11.3 | 0.00 | 0.64 | 0.64 | 82 | 1009.2 |
| 20260506163837 | 18 | 138 | 11.3 | 20.9 | 0.00 | 0.64 | 0.64 | 83 | 1009.5 |
| 20260506163332 | 18 | 253 | 4.8 | 4.8 | 0.00 | 0.64 | 0.64 | 84 | 1009.4 |
| 20260506162827 | 17 | 146 | 4.8 | 6.4 | 0.00 | 0.64 | 0.64 | 85 | 1009.5 |
| 20260506162326 | 17 | 251 | 1.6 | 3.2 | 0.00 | 0.64 | 0.64 | 85 | 1009.4 |
| 20260506161823 | 17 | 264 | 8.0 | 9.7 | 0.00 | 0.64 | 0.64 | 85 | 1009.5 |
| 20260506161320 | 17 | 245 | 4.8 | 11.3 | 0.00 | 0.64 | 0.64 | 86 | 1009.5 |
| 20260506160817 | 17 | 198 | 11.3 | 17.7 | 0.00 | 0.64 | 0.64 | 86 | 1009.4 |
| 20260506160313 | 17 | 269 | 1.6 | 3.2 | 0.00 | 0.64 | 0.64 | 88 | 1009.4 |
| 20260506155813 | 17 | 240 | 11.3 | 12.9 | 0.00 | 0.64 | 0.64 | 88 | 1009.6 |
| 20260506155309 | 17 | 222 | 9.7 | 12.9 | 0.00 | 0.64 | 0.64 | 88 | 1009.6 |
| 20260506153421 | 16 | 169 | 6.4 | 6.4 | 0.00 | 0.64 | 0.64 | 90 | 1009.8 |
| 20260506152919 | 16 | 242 | 0.0 | 1.6 | 0.18 | 0.64 | 0.64 | 91 | 1009.9 |
| 20260506152415 | 16 | 271 | 3.2 | 11.3 | 0.30 | 0.64 | 0.64 | 90 | 1009.7 |
| 20260506151914 | 16 | 229 | 4.8 | 6.4 | 0.30 | 0.61 | 0.61 | 90 | 1009.8 |
| 20260506151411 | 16 | 222 | 16.1 | 20.9 | 0.30 | 0.58 | 0.58 | 90 | 1010.2 |
| 20260506150908 | 16 | 137 | 9.7 | 14.5 | 0.13 | 0.56 | 0.56 | 90 | 1010.0 |
| 20260506150404 | 16 | 246 | 4.8 | 9.7 | 0.00 | 0.53 | 0.53 | 90 | 1010.3 |
| 20260506145901 | 16 | 243 | 3.2 | 4.8 | 0.18 | 0.53 | 0.53 | 90 | 1010.5 |
| 20260506145357 | 16 | 220 | 3.2 | 3.2 | 0.18 | 0.53 | 0.53 | 89 | 1010.6 |
| 20260506144855 | 16 | 179 | 3.2 | 4.8 | 0.00 | 0.51 | 0.51 | 89 | 1010.5 |
| 20260506144351 | 16 | 228 | 6.4 | 9.7 | 0.18 | 0.51 | 0.51 | 89 | 1010.5 |
| 20260506143850 | 16 | 180 | 4.8 | 9.7 | 0.18 | 0.51 | 0.51 | 89 | 1010.4 |
| 20260506143347 | 16 | 229 | 3.2 | 9.7 | 0.13 | 0.48 | 0.48 | 89 | 1010.6 |
| 20260506142845 | 16 | 240 | 6.4 | 6.4 | 0.30 | 0.48 | 0.48 | 89 | 1010.5 |
| 20260506142342 | 16 | 170 | 3.2 | 4.8 | 0.30 | 0.46 | 0.46 | 89 | 1010.6 |
| 20260506141841 | 16 | 202 | 3.2 | 4.8 | 0.30 | 0.43 | 0.43 | 88 | 1010.5 |
| 20260506141338 | 16 | 211 | 6.4 | 9.7 | 0.48 | 0.41 | 0.41 | 88 | 1010.4 |
| 20260506140836 | 16 | 244 | 6.4 | 6.4 | 0.43 | 0.38 | 0.38 | 87 | 1010.6 |
| 20260506140333 | 16 | 187 | 6.4 | 9.7 | 0.43 | 0.33 | 0.33 | 87 | 1010.6 |
| 20260506135830 | 16 | 199 | 4.8 | 6.4 | 0.48 | 0.30 | 0.30 | 87 | 1010.4 |
| 20260506135326 | 16 | 258 | 1.6 | 1.6 | 0.30 | 0.25 | 0.25 | 86 | 1010.4 |
| 20260506134823 | 16 | 165 | 8.0 | 12.9 | 0.48 | 0.23 | 0.23 | 86 | 1010.6 |
| 20260506134319 | 16 | 216 | 4.8 | 6.4 | 0.48 | 0.20 | 0.20 | 85 | 1010.8 |
| 20260506133817 | 17 | 166 | 6.4 | 9.7 | 0.30 | 0.15 | 0.15 | 85 | 1010.7 |
| 20260506133313 | 17 | 108 | 1.6 | 3.2 | 0.48 | 0.13 | 0.13 | 84 | 1010.9 |
| 20260506132810 | 17 | 227 | 3.2 | 6.4 | 0.43 | 0.10 | 0.10 | 83 | 1010.9 |
| 20260506132307 | 17 | 243 | 4.8 | 6.4 | 0.13 | 0.05 | 0.05 | 81 | 1011.0 |
| 20260506131805 | 17 | 236 | 6.4 | 6.4 | 0.00 | 0.03 | 0.03 | 80 | 1010.9 |
| 20260506131301 | 17 | 264 | 4.8 | 6.4 | 0.00 | 0.03 | 0.03 | 79 | 1010.8 |
| 20260506130758 | 17 | 211 | 14.5 | 16.1 | 0.00 | 0.03 | 0.03 | 78 | 1010.8 |
| 20260506130254 | 17 | 259 | 3.2 | 4.8 | 0.00 | 0.03 | 0.03 | 79 | 1010.5 |
| 20260506125753 | 17 | 253 | 3.2 | 3.2 | 0.18 | 0.03 | 0.03 | 79 | 1010.3 |
| 20260506125250 | 17 | 253 | 3.2 | 4.8 | 0.18 | 0.03 | 0.03 | 78 | 1010.3 |
| 20260506124749 | 17 | 222 | 1.6 | 3.2 | 0.00 | 0.00 | 0.00 | 78 | 1010.1 |
| 20260506124246 | 17 | 226 | 1.6 | 4.8 | 0.00 | 0.00 | 0.00 | 79 | 1010.3 |
| 20260506123743 | 17 | 255 | 4.8 | 4.8 | 0.00 | 0.00 | 0.00 | 78 | 1010.0 |
| 20260506123242 | 18 | 226 | 3.2 | 12.9 | 0.00 | 0.00 | 0.00 | 77 | 1010.2 |
| 20260506122738 | 18 | 149 | 1.6 | 3.2 | 0.00 | 0.00 | 0.00 | 76 | 1010.4 |
| 20260506122235 | 18 | 273 | 3.2 | 3.2 | 0.00 | 0.00 | 0.00 | 75 | 1010.4 |
| 20260506121733 | 18 | 260 | 4.8 | 6.4 | 0.00 | 0.00 | 0.00 | 74 | 1010.4 |